Location: Unnamed
(48.6007°N, 2.4808°E)
Time: 04:43:20
(UTC+01:00)

FENGYUN 1C DEB - Pass Details

Date: 05 December 2023
Orbit: 508 x 828 km, 98.6° (Epoch: 21 February)

Event Time Altitude Azimuth Distance (km) Brightness Sun altitude
Rises 05:37:24 0° 8° (N) 3,313 ? -26.8°
Reaches altitude 10° 05:39:49 10° 1° (N) 2,414 ? -26.4°
Enters shadow 05:40:48 15° 356° (N) 2,077 ? -26.3°
